Regional Weather Roundup
Issued by NWS Albany, NY

Home | Current Version | Previous Version | Graphics & Text | Print | Product List | Glossary Off
Versions: 1 2 3 4 5 6 7 8 9 10 11 12 13 14 15 16 17 18 19 20 21 22 23 24 25 26 27 28 29 30 31 32 33 34 35 36 37 38 39 40 41 42 43 44 45 46 47 48 49 50

000
ASUS41 KALY 212310
RWRALY

NEW YORK STATE HOURLY WEATHER ROUNDUP
NATIONAL WEATHER SERVICE ALBANY NY
700 PM EDT SUN SEP 21 2014

NOTE: "FAIR" INDICATES FEW OR NO CLOUDS BELOW 12,000 FEET WITH NO
SIGNIFICANT WEATHER AND/OR NO OBSTRUCTIONS TO VISIBILITY.

NYZ032-033-038>043-046>054-057>066-NYZ062>081-220000-
EAST


CITY           SKY/WX    TMP DP  RH WIND       PRES   REMARKS
ALBANY         MOCLDY    76  64  66 S9        29.59S
GLENS FALLS    MOCLDY    74  63  68 SW8       29.58S
POUGHKEEPSIE   CLOUDY    73  66  78 SE3       29.59F
NEWBURGH       MOCLDY    73  68  83 VRB6      29.63F
MONTGOMERY     MOCLDY    73  65  75 S6        29.60F
WHITE PLAINS   CLOUDY    71  68  90 CALM      29.62F
ISLIP          CLOUDY    72  68  87 CALM      29.59F
NEW YORK CITY  CLOUDY    73  67  81 N3        29.60F
CENTRAL PARK   CLOUDY    73  65  75 CALM      29.64F
$$

NYZ005>009-017-018-044>046-055-056-220000-
CENTRAL


CITY           SKY/WX    TMP DP  RH WIND       PRES   REMARKS
FULTON         CLOUDY    66  61  84 SE5       29.60R
SYRACUSE       LGT RAIN  64  59  83 SE5       29.60R
ROME           LGT RAIN  60  59  96 CALM      29.63S
ELMIRA         MOCLDY    65  62  90 CALM      29.63R
BINGHAMTON     LGT RAIN  63  61  93 NW7       29.64R
MONTICELLO     PTCLDY    70  55  60 S7        29.65S
$$

NYZ026>034-041>043-220000-
NORTH


CITY           SKY/WX    TMP DP  RH WIND       PRES   REMARKS
WATERTOWN      CLOUDY    69  59  70 S6        29.56R
FORT DRUM      NOT AVBL
MASSENA        MOCLDY    69  64  84 S14G21    29.52S
SARANAC LAKE   LGT RAIN  63  61  93 W6        29.60S FOG
PLATTSBURGH    LGT RAIN  72  60  66 S5        29.53F
$$

NYZ001>004-010>016-019>021-220000-
WEST


CITY           SKY/WX    TMP DP  RH WIND       PRES   REMARKS
NIAGARA FALLS  MOCLDY    65  53  65 SW12G22   29.62R
BUFFALO        PTCLDY    66  55  67 SW23G29   29.63R
DUNKIRK        PTCLDY    65  52  62 SW15G35   29.67R
JAMESTOWN      MOCLDY    61  48  63 W14G22    29.72R
WELLSVILLE     PTCLDY    62  52  69 NW13      29.69R
ROCHESTER      PTCLDY    68  53  58 W12G22    29.61R
PENN YAN       PTCLDY    67  55  65 W14G20    29.64R
$$

             KEY
       WCI = WIND CHILL INDEX
       VSB = VISIBILITY
       HX  = HEAT INDEX
$$



USA.gov is the U.S. government's official web portal to all federal, state and local government web resources and services.